This demonstration page uses our WeatherBlox Daily Observations layout. Learn more.

41.55636, -103.73856

Hourly Observations for May 26, 2015

Temp ( °F °C ) Dew Point ( °F °C ) Humidity (%) Winds ( mph kmh ) Pressure ( in mb ) Visibility ( mi km ) Precip ( " mm )
12:12 am 00:12 Cloudy 50 10 48 9 94 94 NNW 6 9 29.91 1013 10 16.0934 0 0
12:53 am 00:53 Cloudy with Mist and Fog 49 9.4 48 8.9 97 97 W 5 7 29.93 1014 2 3.21868 0 0
12:57 am 00:57 Cloudy with Mist and Fog 49 9.4 48 8.9 97 97 W 6 9 29.94 1014 0.75 1.207005 0 0
1:11 am 01:11 Cloudy with Mist and Fog 49 9.4 49 9.4 100 100 W 5 7 29.94 1014 2 3.21868 0 0
1:19 am 01:19 Cloudy with Mist and Fog 49 9.4 48 8.9 97 97 W 6 9 29.94 1014 4 6.43736 0 0
1:53 am 01:53 Mostly Clear with Mist and Fog 47 8.3 47 8.3 100 100 Calm 29.92 1013 4 6.43736 0 0
2:12 am 02:12 Clear with Mist and Fog 46 8 46 8 100 100 W 3 6 29.91 1013 1.5 2.41401 0 0
2:23 am 02:23 Clear with Mist and Fog 46 7.8 46 7.8 100 100 W 5 7 29.91 1013 3 4.82802 0 0
2:47 am 02:47 Mostly Clear with Mist and Fog 45 7 45 7 100 100 NW 6 9 29.97 1015 0.75 1.207005 0 0
2:48 am 02:48 Mostly Clear with Mist and Fog 45 7.2 45 7.2 100 100 NW 6 9 29.92 1013 0.75 1.207005 0 0
3:09 am 03:09 Cloudy with Mist and Fog 46 7.8 46 7.8 100 100 NNW 5 7 29.94 1014 0.75 1.207005 0 0
3:20 am 03:20 Cloudy with Mist and Fog 46 8 46 8 100 100 NNW 3 6 29.94 1014 2 3.21868 0 0
3:28 am 03:28 Cloudy with Mist and Fog 46 8 46 8 100 100 Calm 29.94 1014 6 9.65604 0 0
3:53 am 03:53 Cloudy 47 8.3 46 7.8 97 97 WNW 5 7 29.93 1013 7 11.26538 0 0
4:53 am 04:53 Cloudy with Mist and Fog 47 8.3 47 8.3 100 100 WNW 3 6 29.93 1014 6 9.65604 0 0
5:09 am 05:09 Cloudy with Mist and Fog 47 8.3 47 8.3 100 100 Calm 29.94 1014 6 9.65604 0 0
5:14 am 05:14 Cloudy with Mist and Fog 46 8 46 8 100 100 W 3 6 29.94 1014 1.75 2.816345 0 0
5:18 am 05:18 Cloudy with Fog 46 8 46 8 100 100 W 3 6 29.94 1014 0.5 0.80467 0 0
5:27 am 05:27 Mostly Cloudy with Fog 46 7.8 46 7.8 100 100 WNW 3 6 29.94 1014 0.25 0.402335 0 0
5:53 am 05:53 Cloudy with Fog 46 7.8 45 7.2 96 96 WNW 5 7 29.96 1015 0.25 0.402335 0 0
6:00 am 06:00 Cloudy with Mist and Fog 46 8 46 8 100 100 WNW 5 7 29.97 1015 0.75 1.207005 0 0
6:05 am 06:05 Cloudy with Mist and Fog 47 8.3 46 7.8 97 97 WNW 5 7 29.97 1015 2 3.21868 0 0
6:12 am 06:12 Cloudy with Mist and Fog 46 8 46 8 100 100 WNW 6 9 29.97 1015 6 9.65604 0 0
6:53 am 06:53 Cloudy 49 9.4 49 9.4 100 100 WNW 6 9 29.96 1015 8 12.87472 0 0
7:53 am 07:53 Sunny 53 11.7 50 10 89 89 W 7 11 29.96 1014 10 16.0934 0 0
8:00 am 08:00 Partly Cloudy 54 12 52 11 94 94 W 6 9 29.91 1013 10 16.0934 0 0
8:53 am 08:53 Cloudy 58 14.4 52 11.1 81 81 WNW 3 6 29.96 1015 10 16.0934 0 0
9:53 am 09:53 Cloudy 59 15 52 11.1 78 78 Calm 29.96 1015 10 16.0934 0 0
10:53 am 10:53 Cloudy 62 16.7 52 11.1 70 70 undefined N/A 29.96 1014 10 16.0934 0 0
11:53 am 11:53 Cloudy 67 19.4 52 11.1 59 59 Calm 29.94 1014 10 16.0934 0 0
12:53 pm 12:53 Mostly Cloudy 67 19.4 52 11.1 59 59 SE 9 15 29.93 1014 10 16.0934 0 0
1:53 pm 13:53 Partly Cloudy 67 19.4 53 11.7 61 61 ESE 10 17 29.92 1013 10 16.0934 0 0
2:53 pm 14:53 Mostly Sunny 69 20.6 52 11.1 55 55 ESE 13 20 29.91 1013 10 16.0934 0 0
3:53 pm 15:53 Mostly Sunny 68 20 51 10.6 55 55 SE 13 20 29.91 1013 10 16.0934 0 0
4:53 pm 16:53 Sunny 69 20.6 49 9.4 49 49 SE 9 15 29.9 1012 10 16.0934 0 0
5:53 pm 17:53 Sunny 69 20.6 49 9.4 49 49 ESE 13 20 29.89 1012 10 16.0934 0 0
6:53 pm 18:53 Partly Cloudy 67 19.4 50 10 55 55 SSE 12 19 29.9 1013 10 16.0934 0 0
7:53 pm 19:53 Mostly Sunny 64 17.8 52 11.1 65 65 SSE 8 13 29.91 1013 10 16.0934 0 0
8:53 pm 20:53 Mostly Clear 60 15.6 52 11.1 75 75 undefined N/A 29.92 1013 10 16.0934 0 0
9:53 pm 21:53 Partly Cloudy 59 15 52 11.1 78 78 E 7 11 29.95 1014 10 16.0934 0 0
10:53 pm 22:53 Clear 57 13.9 52 11.1 83 83 E 7 11 29.95 1014 10 16.0934 0 0
11:53 pm 23:53 Mostly Clear 56 13.3 51 10.6 84 84 SE 5 7 29.95 1014 10 16.0934 0 0

Powered by AerisWeather